Location: Kaiser
(34.0939°N, 117.4889°W)
Time: 03:46:23
(UTC+00:00)

Cosmos 1300 - Pass Details

Date: 29 October 2020
Orbit: 511 x 513 km, 82.5° (Epoch: 26 November)

Event Time Altitude Azimuth Distance (km) Brightness Sun altitude
Exits shadow 12:46:00 - 348° (NNW) 2,464 6.0 -17.4°
Reaches altitude 10° 12:47:45 10° 346° (NNW) 1,739 5.2 -17.0°
Maximum altitude 12:51:30 60° 266° (W) 589 2.6 -16.3°
Drops below altitude 10° 12:55:14 10° 186° (S) 1,725 5.4 -15.5°
Sets 12:57:22 0° 182° (S) 2,606 6.3 -15.1°
